CZ-6A DEB, 60831

Orbit data source: Space-Track

CZ-6A DEB, 60831 is space debris in LEO originally from a launch on Tue, 06 Aug 2024 UTC launched from the Taiyaun Space Center, China (TSC). Debris objects in space refer to the collection of defunct objects orbiting the Earth. Examples of debris include non-operational satellites, rocket bodies, and fragments generated from explosions, collisions, or faulty payload assembly.

Loading next visibility...
Identifier
60831, 2024-140HJ
Orbit
LEO
Country
Flag of CNCN / PRC
Related business
Manufacturer
SAST
Mission
Spacecraft
Bus & Motor
Unknown
Mass
Unknown
Launch date (UTC)
2024-08-06 (2 years ago)
Launch vehicle
Unknown
Launch site
Taiyaun Space Center, China (TSC)
Object type
Payload
Rocket body
Debris
Shape & HBR
Unknown shape, 0.1 m
Radar Cross Section
Medium (>0.1 m² and <1 m²)

Expand to show TLE details & history
Last TLE update: 14 hours ago

TLE from 14 hours ago
0 CZ-6A DEB
1 60831U 24140HJ  26171.25274966  .00000470  00000-0  22220-3 0  9999
2 60831  89.0037 274.9397 0059827 174.5884 185.5965 14.17142107 95715
Epoch: 2026-06-20T06:03Z
TLE epoch observation values (Epoch: 2026-06-20T06:03:57.570Z)
Latitude
Longitude
-84.52021°
Altitude
881.043 km
Speed
7.39 km/s
True Right ascension
18h 19m 45s
True Declination
0° 00' 00"
Sunlit
Object was in full shadow at epoch
Visualization orbit readout
Latitude
Unknown
Longitude
Unknown
Altitude
Unknown
Speed
Unknown
Apparent Right ascension
Unknown
Apparent Declination
Unknown
Sunlit
N/A
Visualization observer readout
Local Sidereal Time
07:24:17
Azimuth
Unknown
Elevation
Unknown
Doppler factor
Unknown
Orbital elements
Apogee altitude
875.125 km
Perigee altitude
788.853 km
Semi-major axis
7,210.126 km
Eccentricity
0.00598
Inclination
89.0037°
RAAN
274.9397°
Arg. of periapsis
174.5884°
True anomaly
185.53014°
Mean anomaly
185.5965°
Eccentric anomaly
185.56327°
Mean motion
3.5451 °/min
Orbital period
101.55 mins
BSTAR
0.0002222
Loading maneuver chart data...
Computing Atmospheric mass density...
Loading historical data...
Loading historical data...
Loading historical data...
Loading historical data...
Loading historical data...
Loading historical data...
Loading historical data...

Documentation

Showing up to 5 results
|